ECMWFFLT1_250_spd_102.txt.gz
Wind_Speed
37 38 39 40 41 42 43 45 46 47 47 48 49 50 50 51 52 52 52 53 53 53 54 54 54 54 54 54 53 53 52 52 51 50 49 47 45 44 42 41 40 39 39 38 38 38 38 38 35 33 32 30 30 34 36 36 37 37 37 36 37 41 45
39 40 41 42 42 43 44 45 46 47 48 49 50 50 51 51 52 52 52 53 53 53 53 54 54 53 53 53 52 52 51 51 50 49 48 46 44 42 41 40 38 38 38 38 38 37 38 39 37 33 31 30 28 29 34 37 38 39 39 38 37 38 43
41 42 42 43 43 44 46 47 48 49 49 50 51 52 52 53 53 53 53 53 53 53 53 53 53 53 53 52 52 51 51 50 49 48 47 45 43 42 41 39 38 37 37 37 37 37 37 38 39 36 32 32 31 28 32 39 41 40 41 41 39 39 41
41 41 42 42 43 45 46 48 49 50 51 52 53 54 54 55 55 54 54 54 54 54 53 53 53 53 52 52 51 50 49 49 48 47 45 44 43 42 41 40 39 38 37 37 36 36 37 37 38 38 34 34 35 32 32 38 41 42 43 42 41 40 40
41 42 43 43 44 45 47 48 50 52 53 54 55 56 56 57 57 57 56 56 56 55 55 54 54 53 52 51 51 50 49 48 47 46 45 44 43 42 41 41 40 39 38 37 37 36 37 37 38 38 36 36 38 37 35 37 39 41 44 44 43 42 42
44 44 45 46 47 48 49 51 53 54 55 56 57 57 58 58 58 58 58 58 58 57 57 56 56 55 54 52 52 51 50 49 48 46 45 44 44 43 43 42 42 41 39 39 38 37 37 38 38 39 38 37 39 39 39 39 39 40 43 45 44 44 44
46 47 48 49 51 53 54 56 57 57 57 57 57 57 58 58 59 59 59 59 59 58 58 57 57 56 55 53 53 52 51 50 49 47 46 45 45 45 44 43 43 42 41 41 40 39 38 38 39 39 39 39 40 40 39 40 41 41 42 43 45 45 46
50 51 53 54 56 58 59 60 60 59 58 58 58 58 58 58 58 58 59 59 59 58 58 57 57 56 55 54 53 52 51 50 49 48 48 47 47 47 46 45 44 43 43 43 43 42 41 40 39 39 39 40 41 41 40 40 42 42 41 41 41 44 47
55 56 58 59 60 61 62 63 63 62 60 59 58 58 58 58 58 58 58 58 58 58 58 57 57 56 56 55 54 53 51 51 51 50 50 50 49 48 48 47 46 46 45 45 45 45 44 42 41 41 41 40 41 42 42 42 42 43 42 41 42 44 46
60 61 61 62 62 63 64 65 65 63 61 59 58 58 58 57 58 57 57 57 57 57 57 57 57 56 56 55 55 54 53 53 53 53 53 53 52 51 50 50 50 49 49 48 47 46 46 45 44 44 43 42 42 43 44 44 44 43 42 43 44 46 47
61 62 63 63 64 65 65 65 64 62 61 60 59 59 58 58 57 57 56 56 56 56 56 56 56 56 56 56 55 55 55 55 55 55 55 55 55 54 53 53 52 52 52 51 50 49 48 47 47 46 46 45 43 43 44 44 46 46 43 43 46 46 47
62 63 64 65 65 66 65 65 63 61 61 61 60 60 60 59 59 57 56 56 56 56 56 56 56 56 56 56 56 56 56 56 56 56 56 56 56 56 55 55 54 54 54 53 52 51 50 49 48 48 48 47 46 45 44 44 47 50 47 44 47 47 46
64 65 67 67 67 66 64 63 61 60 60 61 61 61 61 62 61 60 57 56 57 57 56 56 55 55 55 55 55 55 55 55 55 55 55 55 55 56 56 56 55 55 54 54 54 54 53 51 49 48 48 49 48 47 46 44 45 50 51 47 47 48 47
66 67 68 68 67 65 61 60 59 59 59 59 60 61 62 63 63 62 60 58 58 57 56 56 55 55 54 54 55 55 55 55 55 55 55 55 55 56 56 56 56 56 56 56 56 56 54 53 51 49 48 48 49 49 48 46 46 49 53 51 49 49 48
68 69 69 68 65 61 58 57 57 57 58 59 59 60 61 62 63 63 62 61 60 59 57 56 55 55 55 55 55 55 55 55 55 55 55 55 56 56 56 57 57 57 57 56 57 56 55 54 52 51 49 48 49 50 49 48 47 48 52 54 52 51 50
69 69 67 65 62 59 57 57 56 57 58 59 59 60 61 61 62 62 62 62 62 60 59 58 57 56 56 56 56 56 56 56 56 56 56 56 56 56 57 57 57 58 58 57 57 57 57 56 55 54 53 51 49 50 50 50 49 49 51 54 55 54 52
69 68 66 63 61 59 58 58 58 59 59 60 60 61 61 61 62 62 62 63 63 62 61 59 58 58 58 58 58 58 58 58 58 58 58 58 58 58 58 58 59 59 59 59 59 59 59 58 58 56 56 54 52 50 50 51 50 49 50 53 56 57 55
68 67 65 62 61 60 60 60 61 61 62 62 62 62 62 62 62 62 63 63 63 62 62 61 60 59 59 59 59 60 60 60 60 61 61 61 61 61 61 60 60 60 61 61 61 61 60 60 59 59 57 56 54 52 51 51 52 51 50 52 56 58 58
68 66 64 63 62 61 62 62 63 64 64 64 64 64 64 63 63 63 63 63 62 62 62 62 61 61 61 61 61 62 62 63 63 63 64 65 65 65 65 64 63 63 62 62 62 62 62 61 60 60 59 58 56 54 52 52 53 53 51 51 53 57 60
67 66 65 64 63 63 63 64 65 65 66 66 66 66 66 66 65 65 63 62 62 62 62 62 62 62 62 63 63 63 64 64 65 66 66 67 67 68 68 68 67 66 65 65 64 64 64 63 63 62 62 60 59 57 55 54 54 54 54 53 52 55 59
67 66 66 66 65 65 65 65 66 67 68 68 68 68 68 68 67 65 62 61 61 61 62 62 63 63 63 64 64 64 64 65 66 67 68 69 69 70 70 70 70 69 68 67 66 67 67 67 67 67 66 65 63 61 59 57 56 56 56 55 54 54 57
68 67 67 67 66 66 66 67 67 68 69 69 69 69 69 69 66 63 61 60 60 60 61 62 63 63 64 64 64 64 65 67 68 69 70 71 71 72 72 71 70 70 69 69 68 68 68 69 70 70 70 69 67 65 63 61 59 58 57 57 56 56 56
68 68 68 68 68 67 68 68 68 68 69 69 70 70 70 68 64 61 60 60 60 60 61 61 62 62 63 64 65 66 68 69 70 71 72 73 74 73 73 71 70 69 69 69 69 69 69 70 71 71 71 71 70 68 66 64 63 61 59 58 58 58 57
68 68 69 69 69 69 69 68 68 68 69 69 70 70 68 65 62 60 59 59 60 60 60 60 61 62 63 64 66 68 69 71 72 73 74 74 74 73 72 71 70 69 69 69 69 70 71 71 72 72 72 72 72 71 70 68 67 65 63 61 60 60 59
69 69 68 69 70 70 69 69 69 69 68 68 68 67 64 61 59 58 57 57 58 59 59 60 61 63 64 66 68 69 70 72 73 74 75 74 72 71 71 71 70 70 70 70 70 71 72 73 74 74 74 74 73 73 73 72 71 69 67 64 62 62 62
69 69 69 69 70 71 71 71 70 69 67 66 65 62 58 56 55 55 55 56 57 58 59 61 62 64 66 67 69 71 73 74 75 74 73 72 71 71 71 71 72 72 72 72 72 72 73 74 76 76 76 76 75 75 75 74 73 73 71 68 65 64 65
69 69 69 69 70 70 71 71 70 69 67 64 61 57 54 53 54 54 55 56 58 59 61 63 64 66 68 70 72 74 74 75 74 73 72 71 71 72 72 72 73 74 74 74 74 74 74 75 76 77 78 78 77 76 76 75 74 73 73 71 68 66 67
67 68 68 69 69 69 69 70 69 68 65 61 57 54 53 54 55 56 58 59 61 63 65 67 68 70 72 73 74 74 73 73 72 72 73 73 73 73 73 74 74 75 77 77 77 77 77 77 78 78 80 81 81 80 78 76 74 73 72 72 71 69 69
66 66 66 67 67 68 68 67 66 63 60 57 55 54 55 56 58 59 61 63 65 67 69 71 72 73 73 73 72 72 72 72 73 74 74 75 75 76 76 76 76 76 77 77 77 76 76 75 76 76 78 80 82 83 82 80 77 74 72 70 70 70 71
64 64 65 65 65 65 65 63 61 58 56 55 55 56 57 59 61 63 65 66 68 70 72 72 72 72 71 71 72 73 73 74 75 77 78 79 80 80 79 78 76 74 73 72 72 71 70 69 69 69 70 73 76 79 81 80 77 75 72 71 70 71 71
62 63 63 63 62 61 59 57 56 55 54 55 57 59 61 62 64 65 67 69 70 71 71 70 70 71 72 73 74 75 76 77 79 80 82 83 82 81 79 77 74 72 70 69 68 66 65 64 64 64 64 66 70 74 76 76 74 72 70 69 70 71 72
60 61 60 59 58 56 54 53 53 53 55 57 59 61 62 64 66 67 69 69 69 69 69 70 71 72 74 75 76 78 79 81 82 83 84 83 82 80 79 77 75 72 70 67 65 63 61 60 59 58 59 60 63 67 70 71 70 69 67 65 66 69 72
58 57 56 54 52 51 51 51 52 54 56 58 60 62 64 66 67 68 69 69 69 69 70 71 72 74 75 77 79 81 82 83 83 83 82 81 80 79 78 76 75 72 69 66 63 60 57 56 55 54 54 55 57 61 64 65 65 65 64 63 62 64 69
55 53 52 50 50 50 51 52 54 56 58 60 62 64 66 67 67 67 68 68 69 70 71 72 73 75 77 79 81 82 83 82 81 80 79 78 76 75 74 73 71 69 67 65 62 59 56 54 53 52 52 51 52 54 57 59 59 61 61 60 59 61 64
52 51 50 49 50 51 53 55 57 58 60 62 64 65 66 66 66 66 67 68 69 70 72 74 75 77 78 80 80 80 79 78 77 76 75 74 72 71 70 69 67 66 64 63 61 57 53 51 50 51 51 49 48 49 51 52 53 56 57 56 57 59 60
50 50 50 51 52 54 56 57 59 60 62 63 63 64 64 64 65 66 67 68 70 72 73 75 77 78 78 78 77 76 75 74 73 72 71 69 68 66 66 65 63 62 60 59 57 52 48 46 45 46 47 46 45 45 47 46 46 49 52 52 53 54 55
50 50 51 53 54 56 58 59 60 61 62 62 62 62 63 64 65 66 67 69 71 73 75 76 77 76 75 74 72 72 71 70 69 67 66 65 64 63 62 60 58 56 55 53 52 48 43 40 40 41 42 42 41 42 43 43 42 43 46 48 48 50 51

ECMWFFLT1_250_spd_108.txt.gz
Wind_Speed
38 42 47 53 55 54 54 53 51 51 51 51 52 53 55 57 58 59 59 59 60 60 61 61 61 61 62 63 65 66 68 68 68 68 68 67 66 64 60 55 52 51 51 51 49 48 46 45 44 41 38 36 36 38 37 35 34 35 37 39 41 43 43
45 50 54 55 54 53 53 52 51 52 52 53 55 56 58 59 59 59 60 60 61 62 62 63 63 64 66 67 69 71 71 71 71 71 70 69 66 63 58 54 52 51 50 50 49 49 47 45 44 43 41 38 36 37 37 37 36 36 37 39 41 44 45
53 55 55 54 53 53 53 53 53 54 55 56 57 58 59 60 60 61 62 63 64 65 65 66 66 67 69 71 74 74 73 73 73 72 70 68 65 61 57 54 51 50 49 49 48 48 47 46 44 44 43 41 39 37 37 37 38 38 38 40 41 43 45
56 56 55 55 55 54 54 55 56 57 58 59 60 60 60 61 61 63 64 66 67 67 68 68 69 71 73 75 76 75 74 74 73 72 69 66 63 60 56 53 51 49 48 48 48 48 47 45 44 44 44 42 41 41 39 37 38 38 39 41 41 42 44
59 58 57 56 56 56 56 57 58 59 60 61 61 62 62 63 64 65 67 68 68 69 70 71 73 75 77 77 77 76 75 74 73 71 68 64 61 58 56 53 51 50 48 47 47 48 47 46 45 44 44 43 42 42 42 40 40 40 40 41 42 42 43
59 58 57 57 57 57 58 58 60 61 61 62 63 63 64 65 66 67 68 69 70 71 72 74 76 78 78 78 78 77 76 74 72 69 66 63 60 57 55 53 52 50 49 48 47 47 47 47 46 45 45 44 42 43 43 43 42 42 41 41 41 43 43
57 57 57 58 58 58 60 61 62 63 63 63 64 65 66 66 67 68 69 70 71 73 75 77 78 79 79 79 79 78 76 73 71 68 66 63 60 58 56 54 53 51 50 50 49 48 47 47 47 46 46 45 44 44 45 45 45 45 44 43 42 43 43
57 58 58 59 60 60 62 63 63 64 64 64 64 65 66 67 68 69 70 72 73 75 77 78 79 79 80 80 79 78 75 72 69 67 65 63 61 59 58 57 55 53 52 51 50 49 48 47 47 47 46 46 46 46 47 47 48 48 48 46 44 44 44
59 60 60 61 62 63 63 64 63 63 63 64 65 66 67 68 69 70 72 74 75 76 78 79 79 80 80 79 78 76 74 71 68 66 64 63 61 60 59 59 58 57 55 54 53 51 51 49 48 47 47 46 46 47 48 49 50 52 51 49 48 47 45
61 62 62 63 63 64 63 63 63 63 64 65 66 67 68 70 71 73 74 76 77 78 79 80 81 81 80 79 77 75 72 69 67 65 64 63 63 62 61 60 60 59 58 57 56 54 53 52 50 49 48 47 46 46 47 49 51 54 55 52 51 51 49
61 61 61 62 62 62 62 63 64 65 66 68 69 70 71 73 74 76 77 78 79 80 81 82 82 82 81 79 77 75 71 69 67 66 65 64 64 64 63 62 62 61 61 60 59 57 55 54 53 51 50 49 47 46 46 47 49 53 57 56 54 53 52
62 62 62 62 63 63 64 66 67 68 69 70 72 73 74 76 77 78 79 80 81 82 83 84 83 82 81 79 77 74 71 69 67 67 66 66 66 65 65 64 64 64 63 62 61 59 57 55 54 53 52 51 49 48 46 45 46 50 54 56 57 56 55
66 65 66 66 67 68 68 69 70 71 72 73 75 76 77 78 79 80 81 82 83 84 85 84 83 82 81 79 76 74 72 70 69 68 67 67 67 67 66 66 66 66 65 64 62 60 58 56 55 54 53 53 52 50 49 47 46 48 52 54 56 59 58
69 69 69 70 71 71 72 73 73 75 76 77 78 79 79 80 81 82 83 85 85 85 85 84 83 82 80 78 76 74 72 71 70 70 69 68 68 68 68 68 68 67 66 65 63 60 58 56 55 54 54 54 54 53 52 51 48 48 52 54 55 58 60
72 72 73 74 74 75 76 76 77 78 78 79 79 80 81 82 84 85 86 87 86 85 85 84 83 82 80 78 76 74 73 72 71 70 70 69 69 69 70 69 69 68 67 64 62 59 58 56 55 55 55 55 55 56 55 54 53 51 52 55 56 57 60
74 75 76 76 77 77 77 78 78 79 79 80 81 82 84 86 87 87 87 87 86 86 85 84 83 81 79 77 76 75 74 72 71 71 70 70 70 70 70 70 69 68 66 64 61 58 57 56 56 55 56 56 56 57 57 57 56 54 54 56 58 59 60
76 76 77 78 78 78 79 79 80 80 81 83 84 86 87 87 87 87 87 86 86 86 85 84 82 80 78 77 76 75 73 72 71 71 71 70 70 70 70 70 69 68 66 63 60 58 57 56 57 56 57 58 58 58 59 59 58 57 56 57 60 61 62
78 78 79 79 79 80 80 80 81 82 83 85 85 86 86 86 86 86 86 86 86 86 84 82 80 79 78 77 75 74 73 71 71 71 70 70 70 70 70 69 68 66 64 62 60 59 58 58 58 58 58 59 59 60 60 61 61 60 59 59 60 62 63
76 76 77 78 79 80 81 82 82 83 83 84 84 85 85 86 86 86 87 87 86 85 83 80 79 78 77 76 74 73 72 71 70 70 70 70 69 69 68 67 66 65 63 62 61 60 60 60 60 60 60 61 61 62 62 62 62 62 62 61 62 63 64
75 76 77 78 79 80 81 82 81 82 83 83 84 85 86 87 87 87 87 86 85 83 81 79 78 77 76 75 73 72 71 70 69 69 69 68 68 67 66 66 65 65 64 63 63 62 62 63 63 63 64 64 64 65 65 65 65 64 64 64 64 65 66
76 76 77 78 79 79 80 80 81 82 84 84 85 87 87 88 88 87 86 84 83 82 80 79 78 77 75 73 72 71 69 69 69 69 68 68 67 66 65 64 64 64 65 65 65 65 65 65 66 67 67 68 68 68 68 69 69 69 68 67 67 67 68
73 74 75 76 77 78 80 81 82 83 84 85 86 87 87 87 86 85 84 83 82 81 81 80 79 77 75 74 73 72 71 70 70 70 69 68 67 66 65 64 64 64 65 66 66 67 67 66 66 66 67 68 68 68 69 69 70 70 70 69 69 70 70
72 73 75 76 78 79 80 81 83 83 84 85 86 86 86 85 84 83 82 82 81 81 81 80 79 77 76 75 74 73 72 72 72 71 70 68 67 66 65 65 65 65 66 67 68 68 67 67 66 65 65 65 66 67 67 68 69 69 70 70 70 70 70
74 75 76 77 78 79 80 81 82 83 84 84 85 85 84 83 82 81 81 81 81 81 79 78 77 76 75 74 73 73 73 73 72 71 70 69 68 68 67 67 67 68 69 69 69 69 68 68 68 67 67 67 67 67 68 69 70 71 72 72 72 72 72
74 75 76 76 77 78 79 80 81 82 83 83 83 82 82 81 81 81 81 81 80 78 77 76 75 74 73 73 73 73 72 71 70 69 69 69 69 70 70 70 71 71 71 70 69 70 70 71 72 72 72 72 71 70 70 69 70 71 72 73 74 75 75
74 74 75 75 76 77 78 80 81 81 81 81 80 80 80 80 80 80 80 79 77 77 76 75 74 73 72 72 72 71 70 69 68 68 69 70 71 72 72 73 73 72 71 70 71 71 72 73 74 74 74 73 72 70 69 68 67 67 68 69 71 73 75
72 73 74 76 77 78 79 80 80 80 79 79 79 79 79 79 80 79 78 77 76 75 74 73 72 72 72 71 70 69 68 68 68 69 70 72 73 73 73 73 72 72 72 72 73 74 74 74 73 73 72 71 70 69 67 66 65 64 64 64 64 66 69
72 74 76 77 78 79 79 78 78 77 77 78 78 79 79 79 78 77 76 75 74 73 72 71 71 71 70 69 67 67 67 68 69 70 71 72 73 73 72 72 72 72 74 74 75 74 73 72 71 70 69 68 68 67 66 64 64 63 62 61 60 61 63
74 76 76 77 77 77 76 75 75 76 77 77 78 78 78 77 76 75 74 73 72 71 70 70 70 69 67 66 66 67 68 69 70 71 71 72 72 72 71 72 73 74 75 75 74 73 71 70 69 68 67 66 65 64 63 62 61 60 58 57 56 57 59
75 75 75 75 74 73 73 73 74 76 76 77 78 78 77 76 74 73 72 71 69 69 69 69 68 67 66 66 67 68 69 70 70 71 71 71 71 72 73 74 75 75 75 74 72 71 70 69 67 65 63 62 61 60 60 59 58 55 53 51 50 51 54
72 72 72 71 70 71 72 73 75 76 76 77 77 77 76 74 73 71 70 69 68 68 68 67 66 66 66 67 67 68 69 70 70 70 70 70 71 73 75 76 76 75 73 72 70 69 68 66 64 62 61 60 59 59 58 57 55 54 50 46 44 45 48
69 69 68 68 70 71 73 74 75 76 76 77 76 75 74 72 71 70 68 68 68 67 66 65 65 65 66 67 68 68 69 69 69 69 70 71 73 75 75 75 75 73 72 70 68 66 64 63 61 61 60 61 60 60 59 57 55 54 52 47 43 42 42
66 67 67 69 70 72 74 75 76 76 76 76 75 73 72 71 69 68 67 67 67 66 65 65 65 65 66 67 68 68 68 68 69 70 72 74 75 75 75 74 72 71 70 68 66 64 62 61 60 60 60 60 59 58 58 56 53 52 51 48 45 42 41
66 67 69 70 72 73 75 76 76 76 76 74 72 71 70 68 67 67 67 66 65 64 64 65 65 66 66 67 67 67 68 69 71 72 74 75 75 74 73 72 70 69 67 65 63 62 61 60 60 60 59 58 57 55 53 51 49 48 47 45 43 42 41
67 69 70 72 73 74 76 76 76 75 73 71 70 68 67 66 66 66 65 64 63 63 64 64 65 66 66 66 67 68 69 71 72 73 74 74 73 72 71 69 67 65 63 61 61 60 60 60 59 57 56 56 55 52 49 47 45 43 42 40 39 39 39
69 70 72 73 74 75 76 76 75 73 70 68 67 66 65 65 65 64 63 63 62 63 63 64 65 65 66 67 68 69 70 71 72 73 72 72 70 69 68 66 63 61 60 59 59 59 58 57 55 54 53 53 53 51 47 44 42 40 38 37 36 37 36
70 72 73 74 75 75 75 73 71 69 67 64 63 63 63 63 63 62 61 61 62 63 63 64 65 66 67 68 69 69 70 71 71 71 70 69 68 66 64 61 59 58 58 58 57 57 55 53 52 51 51 51 51 49 45 42 40 38 36 34 34 34 33

ECMWFFLT1_250_spd_111.txt.gz
Wind_Speed
41 40 41 43 44 44 44 45 46 47 47 48 50 54 58 62 64 63 62 61 60 59 59 60 60 61 61 61 61 63 64 65 66 68 70 72 74 76 78 79 79 79 78 76 73 67 60 56 56 54 50 49 50 51 51 51 50 49 47 44 42 40 40
40 40 42 44 46 47 47 48 48 48 49 52 55 58 62 65 66 65 64 62 61 62 62 62 62 63 62 62 63 64 66 67 68 70 73 75 76 78 80 80 81 80 80 78 74 68 59 53 52 53 53 51 51 51 49 50 51 50 49 46 43 41 40
40 41 43 45 47 47 47 48 49 50 53 56 59 63 66 68 67 65 64 63 63 62 62 62 63 62 62 63 65 66 67 69 71 73 75 76 78 79 80 81 82 81 80 78 74 68 60 53 49 49 50 51 53 54 51 49 50 50 50 48 45 43 41
43 43 44 45 44 44 45 47 50 53 57 60 64 66 67 66 65 63 63 63 63 63 63 63 63 63 64 66 68 70 71 72 74 76 77 79 80 81 81 82 82 81 79 77 73 67 61 55 51 48 48 48 50 53 54 53 52 51 50 49 47 45 44
46 45 44 45 45 46 49 53 57 60 63 65 66 66 66 65 64 64 64 65 65 65 65 65 65 66 69 71 72 73 75 76 77 79 80 81 82 82 83 83 82 81 78 75 70 65 60 56 53 50 49 49 49 50 52 54 55 54 52 50 49 47 46
47 47 47 48 51 54 58 61 63 65 66 66 66 66 66 66 66 66 66 66 66 66 67 67 69 71 73 74 76 77 78 79 80 82 83 84 84 84 85 84 83 80 78 74 69 64 60 58 54 52 50 50 50 51 52 53 55 56 55 53 51 49 47
48 49 51 54 58 61 64 65 66 67 67 67 67 67 67 67 67 67 67 67 67 68 69 71 73 75 76 77 79 80 81 82 83 84 85 86 86 86 86 85 83 81 77 73 69 65 62 60 57 54 52 51 51 51 52 54 55 57 58 56 54 51 49
52 53 56 59 62 64 66 67 68 68 68 68 68 67 67 67 66 67 67 68 69 71 73 75 77 78 79 80 81 83 84 85 85 86 87 87 87 87 86 85 83 81 77 72 69 66 64 62 60 57 54 52 52 52 53 54 55 57 59 59 57 54 51
55 57 59 62 64 66 67 68 69 69 68 67 67 67 67 67 68 69 70 72 74 76 78 79 79 80 81 83 84 85 85 86 86 87 88 88 88 87 86 85 83 80 77 73 70 68 66 64 62 59 57 54 52 52 53 55 57 57 58 59 60 58 54
58 59 61 63 65 66 68 69 68 68 68 68 69 70 71 72 73 75 76 78 79 80 80 81 81 83 84 85 86 86 86 87 88 88 88 88 88 87 87 85 83 80 77 75 72 70 68 66 63 60 58 55 53 51 51 53 57 59 58 59 61 61 58
61 62 64 65 66 67 68 69 70 70 71 72 74 75 76 77 78 79 80 80 81 82 82 83 84 85 86 86 86 86 87 88 88 88 89 89 89 88 86 84 81 79 77 76 74 71 69 66 64 61 58 56 53 51 50 50 54 58 58 59 61 61 61
64 66 67 69 70 71 72 72 73 74 75 76 77 77 79 80 80 81 81 82 83 84 85 86 87 87 87 87 87 88 88 88 88 89 90 90 89 88 85 83 81 80 78 76 74 72 69 67 64 61 58 56 54 51 49 48 50 54 56 57 61 62 62
67 68 70 71 72 73 74 74 75 76 76 77 78 79 81 81 81 82 83 84 85 86 86 87 87 87 87 88 88 89 89 89 89 91 91 90 88 86 84 82 81 80 78 76 73 71 69 66 64 62 59 57 54 51 49 46 46 50 53 55 58 62 63
66 68 70 71 72 73 73 74 75 76 77 78 80 81 81 82 82 83 84 85 85 86 86 86 86 87 88 89 89 89 89 90 91 91 91 89 86 84 83 82 81 79 77 74 72 70 67 65 63 61 60 58 55 52 49 46 44 47 51 53 56 60 63
67 68 70 71 72 73 74 75 76 77 78 79 80 81 81 82 83 83 84 84 84 84 85 86 87 88 89 89 89 90 91 92 91 90 89 87 85 84 83 82 79 77 74 71 69 67 65 63 62 60 59 57 55 52 49 47 45 45 49 52 54 57 61
68 69 70 71 72 73 74 76 77 78 79 79 80 81 81 82 82 82 82 82 84 85 86 87 88 88 89 90 91 92 92 91 90 88 87 85 85 84 82 80 77 73 70 67 66 64 62 61 60 59 58 56 55 54 51 49 47 46 47 51 54 56 60
68 69 70 71 72 73 75 76 77 78 78 79 79 80 80 80 80 81 82 84 85 86 86 87 87 89 90 92 92 92 91 90 88 86 85 84 84 82 80 77 73 69 66 64 62 62 61 59 59 58 57 57 56 56 55 52 50 49 49 51 54 56 58
67 69 70 71 72 73 74 75 75 76 76 77 77 78 78 79 80 82 83 84 85 85 86 87 89 90 91 92 91 91 89 88 87 85 85 84 82 80 77 74 70 67 64 63 62 61 60 59 58 58 58 58 58 58 58 57 56 54 54 54 55 57 59
66 67 68 69 70 71 72 72 73 73 73 74 74 75 77 78 79 81 82 83 84 85 87 88 90 90 91 91 90 89 88 87 86 86 85 83 80 78 75 72 69 67 65 64 63 62 61 60 60 59 59 59 59 59 59 60 60 59 59 59 60 61 62
64 65 66 67 68 68 69 69 70 70 71 72 74 75 76 77 79 80 82 83 85 86 88 89 89 90 90 90 89 88 88 87 86 85 83 80 78 75 72 70 69 68 67 65 63 62 62 62 61 60 60 59 59 60 60 60 61 61 62 63 63 64 65
62 63 63 64 64 65 66 67 68 69 71 72 74 75 76 78 79 81 83 84 86 87 88 89 89 89 89 89 88 88 87 87 85 83 80 78 75 72 71 70 70 69 67 65 64 63 62 62 63 62 62 61 61 61 61 61 61 62 62 63 65 66 67
62 62 63 63 64 65 66 67 68 70 71 72 74 76 77 79 80 82 84 85 86 87 88 88 88 88 88 87 87 87 87 85 82 79 77 75 73 71 70 71 70 69 68 67 66 65 64 63 63 63 63 64 64 64 64 64 64 64 64 65 66 67 69
63 63 64 65 66 67 68 69 70 71 72 73 75 77 78 80 81 83 84 84 85 86 87 87 87 86 86 86 87 86 84 82 79 77 75 73 71 71 71 71 70 69 69 69 68 67 66 65 65 65 65 65 65 65 66 67 67 67 67 67 68 69 70
64 65 66 67 68 69 70 70 71 72 73 75 76 78 79 80 81 82 83 84 85 86 86 85 85 85 86 86 85 83 81 79 77 75 73 72 72 72 71 70 70 69 69 69 69 69 69 69 68 68 68 68 67 67 66 66 66 65 65 65 66 67 69
65 65 66 67 68 69 70 71 72 73 74 75 76 77 78 79 80 82 83 85 85 84 83 83 84 84 85 84 82 80 78 76 75 74 73 73 72 72 71 70 69 69 69 69 69 69 70 71 71 71 71 70 69 67 64 62 60 60 59 60 61 63 64
65 66 66 67 68 69 70 71 72 73 73 74 75 77 79 80 82 83 84 83 82 82 82 83 83 84 83 81 78 77 75 74 73 73 73 73 72 71 70 70 69 69 68 69 69 70 71 72 73 73 72 70 68 65 63 60 57 55 54 54 55 57 59
65 66 67 68 69 70 70 71 72 73 73 75 77 78 80 81 82 82 81 80 80 81 82 82 82 82 80 78 76 75 73 72 72 72 72 72 71 70 70 70 69 68 68 69 70 71 72 72 72 71 69 67 65 63 61 59 57 55 53 51 51 52 54
65 66 67 68 69 70 71 72 72 73 75 76 78 79 79 79 79 78 78 79 80 81 81 81 81 79 77 75 74 73 72 72 72 72 72 71 70 70 69 69 69 68 69 70 71 72 71 70 69 68 66 64 63 61 60 58 56 55 53 51 50 49 50
66 67 68 68 69 70 70 71 72 73 75 76 76 76 76 75 76 76 77 79 80 81 81 80 78 76 75 73 73 72 72 72 72 71 71 70 70 69 68 68 68 69 70 71 71 70 69 68 67 65 64 62 60 59 58 57 56 53 51 49 47 46 45
66 66 67 67 67 68 69 70 71 71 72 72 72 72 73 73 75 76 78 79 80 80 79 78 76 74 73 72 71 71 71 71 70 69 69 69 69 68 68 68 70 71 71 71 70 68 67 66 64 62 61 59 58 57 57 57 56 53 49 46 44 43 42
64 65 65 66 66 67 67 67 68 68 69 69 70 71 72 74 75 77 78 79 79 78 77 75 74 72 71 70 70 70 70 70 69 68 68 68 68 68 69 70 71 71 71 70 68 67 65 63 61 59 58 57 56 56 56 56 56 55 51 48 45 43 41
63 63 64 64 64 64 65 65 66 67 67 68 70 71 73 75 76 77 78 78 78 76 75 73 71 69 69 69 69 69 69 68 67 67 67 67 67 68 70 71 71 70 69 68 66 64 62 60 58 56 55 55 54 54 54 54 55 54 52 50 48 45 42
61 62 62 62 62 63 64 65 66 67 68 69 71 73 74 76 77 77 77 77 76 74 72 70 68 67 68 68 68 67 67 67 67 68 68 68 68 70 70 70 70 69 67 66 64 62 59 57 56 54 53 53 52 52 53 53 53 52 51 49 46 44 41
61 61 61 62 62 63 64 65 66 67 69 70 72 74 75 76 76 76 76 75 73 71 68 67 66 66 67 67 67 66 66 67 67 67 67 68 69 70 70 69 68 67 65 63 61 59 57 55 55 54 53 52 51 51 51 51 51 49 48 46 43 41 39
60 61 61 62 63 63 64 65 67 68 70 72 73 75 75 75 75 74 73 71 69 67 65 65 65 65 65 65 66 66 66 67 66 67 68 69 69 69 69 68 66 65 62 60 58 56 55 55 54 52 51 51 51 51 50 50 49 47 44 42 40 38 36
61 61 62 63 63 64 65 66 68 69 71 73 74 74 74 73 73 72 69 67 65 63 63 63 63 64 64 65 65 66 65 65 66 67 68 69 69 68 67 66 64 62 59 57 56 55 55 53 52 51 50 50 49 49 49 48 46 44 41 39 37 35 34
61 62 63 63 64 65 66 67 69 71 72 72 72 72 72 71 70 67 65 63 62 61 61 62 62 63 63 64 64 64 64 64 66 67 68 68 67 67 65 64 61 59 57 56 55 54 52 51 49 49 48 48 48 47 47 46 44 42 40 38 36 34 32

ECMWFFLT1_250_spd_114.txt.gz
Wind_Speed
47 48 48 49 49 49 49 48 48 48 47 46 46 47 47 47 47 48 49 51 53 57 60 62 64 66 69 71 73 74 73 73 72 71 71 71 71 72 73 73 75 77 79 80 81 81 80 80 81 80 79 77 74 70 66 63 60 56 52 48 46 46 46
45 46 48 49 49 50 50 50 51 50 50 49 49 50 52 52 52 52 53 54 56 58 61 64 66 69 71 73 74 74 73 73 73 73 73 74 75 76 77 78 80 81 82 82 82 81 79 78 77 78 78 77 75 71 66 63 60 57 53 50 48 47 47
47 46 48 49 50 50 51 51 51 51 51 50 50 51 51 52 52 52 53 54 57 61 64 67 69 71 73 74 74 73 74 74 75 76 77 78 79 80 81 83 84 85 85 84 83 81 80 78 76 76 75 73 72 70 66 63 61 58 55 52 49 48 48
50 48 48 49 50 50 50 51 52 52 51 51 50 50 49 50 50 51 54 58 62 66 69 71 73 74 74 74 73 74 75 76 77 78 80 80 81 82 84 86 86 86 86 84 83 82 81 80 79 78 75 72 69 69 67 65 62 60 57 54 51 48 49
52 50 48 49 49 49 49 50 50 50 50 49 48 49 49 51 53 55 59 64 67 70 72 74 74 74 73 73 74 76 77 78 80 81 82 82 84 86 87 88 87 87 86 85 83 83 83 83 82 79 76 72 69 68 68 66 65 62 59 56 54 50 49
53 52 50 48 48 47 47 48 48 48 47 47 48 50 53 56 59 61 64 67 70 72 73 74 74 73 73 75 77 79 80 81 82 83 84 85 87 88 88 88 87 86 85 85 85 85 86 85 83 79 75 71 69 68 68 67 65 63 61 58 56 53 51
53 53 51 49 48 47 46 46 47 48 49 50 52 54 57 60 62 65 67 69 71 72 73 73 74 75 77 79 81 82 82 84 85 86 87 88 89 89 88 87 86 86 86 86 87 88 87 86 82 78 74 71 70 69 68 67 65 63 62 59 57 55 53
53 53 52 51 50 49 48 48 49 51 53 55 56 58 60 63 65 67 69 70 72 73 74 75 77 79 81 82 83 84 85 86 87 88 89 89 89 88 87 87 86 86 87 88 89 89 88 85 81 77 73 72 70 69 69 67 65 63 62 60 58 55 54
52 52 52 51 51 50 50 51 53 54 56 58 60 61 63 65 67 69 70 72 74 76 77 79 80 82 83 84 84 86 87 88 89 89 89 89 88 87 87 86 87 88 89 90 90 90 87 84 80 77 74 72 70 68 68 67 65 63 61 60 58 56 54
51 51 51 51 52 52 53 54 55 57 58 60 62 63 65 67 68 70 72 74 76 78 79 80 82 83 84 85 86 88 88 89 88 88 88 87 87 87 87 87 88 89 91 91 91 89 86 83 80 78 76 73 70 67 65 65 64 62 61 60 58 57 56
51 51 52 53 54 55 56 57 58 59 60 61 63 64 66 68 70 72 74 76 77 79 80 81 83 84 85 86 87 88 88 87 87 86 86 86 87 87 87 88 90 91 92 91 90 88 85 83 81 79 77 74 70 67 64 62 62 61 60 60 59 57 57
52 52 54 55 56 57 58 59 60 61 62 63 64 66 68 69 71 73 75 77 78 79 81 82 83 84 85 86 86 86 85 85 85 86 86 87 87 87 89 90 91 92 92 91 89 86 84 83 81 79 76 73 69 67 64 61 61 60 59 59 59 57 56
51 53 54 55 56 57 58 58 59 60 61 63 64 66 68 70 72 74 76 77 79 80 81 82 83 83 83 84 84 84 84 85 86 86 87 87 88 89 90 92 92 92 91 89 87 86 84 83 80 77 74 71 67 65 62 60 60 60 59 58 58 57 56
50 51 52 53 54 55 56 58 59 60 62 63 65 67 70 72 73 75 76 77 78 79 80 80 80 81 81 82 83 83 84 85 86 86 87 88 89 90 91 92 92 91 90 88 86 86 84 82 78 75 72 69 65 62 61 59 57 58 58 57 56 56 55
48 50 51 53 54 55 57 59 60 62 64 66 67 69 71 73 74 74 75 76 76 77 78 78 79 80 81 82 83 83 84 85 86 87 88 89 90 90 91 91 91 90 88 87 87 85 83 79 76 73 70 67 64 62 59 58 56 55 55 56 55 55 56
49 50 51 52 54 56 58 60 61 63 65 66 68 69 70 71 72 73 73 74 75 76 76 77 78 80 81 82 82 83 84 85 87 88 88 89 90 90 91 90 90 89 89 88 87 84 80 77 74 71 68 66 64 62 59 57 56 55 55 56 57 56 57
50 51 52 53 54 55 57 59 61 62 63 64 66 67 68 69 70 71 72 73 74 74 75 77 78 80 81 82 83 84 85 86 87 87 88 89 90 90 90 90 89 89 89 88 85 81 77 74 72 69 67 66 63 62 60 58 57 57 57 57 58 58 59
52 53 53 54 54 55 57 58 60 61 62 63 65 66 67 68 70 71 71 72 73 75 76 78 79 81 82 82 83 84 85 85 86 87 89 90 90 90 90 90 90 90 89 86 82 78 75 72 71 69 67 66 64 63 62 61 60 60 60 60 60 60 60
53 54 54 55 56 56 58 59 61 62 63 64 65 66 67 69 70 71 72 73 75 76 78 79 80 81 82 82 83 83 84 85 87 88 89 89 89 89 90 90 90 89 85 82 78 76 74 72 70 69 68 66 65 64 64 63 63 63 63 62 62 62 62
55 55 55 56 57 58 59 61 62 63 64 65 66 67 68 69 70 72 73 75 76 78 78 79 80 81 81 82 82 84 85 86 86 87 87 87 88 89 90 90 88 85 81 78 75 74 73 72 70 68 67 67 67 66 66 66 65 65 65 65 65 65 65
57 57 57 58 59 60 61 62 63 64 65 66 67 68 69 70 71 73 74 75 76 77 78 79 80 81 81 82 83 84 84 84 84 84 85 87 88 89 89 88 84 81 78 75 73 72 71 70 69 68 67 68 68 68 68 68 68 68 68 68 68 68 68
58 58 59 60 61 62 63 64 64 65 66 67 68 69 69 71 72 73 74 75 76 77 78 79 80 81 81 82 82 82 82 82 82 83 85 87 88 88 86 84 81 78 76 74 72 71 69 68 67 67 68 69 69 70 70 70 69 69 69 69 69 69 69
59 59 60 60 61 62 63 64 65 65 66 67 67 68 69 70 71 72 74 75 76 78 79 79 80 80 80 80 80 80 80 81 82 84 85 86 86 85 83 80 78 76 74 73 72 71 69 69 68 68 68 69 69 69 70 70 70 69 68 67 67 66 66
58 58 58 59 60 61 63 63 64 64 65 66 67 68 69 70 71 73 75 76 77 77 77 77 77 77 77 77 78 78 80 81 83 84 85 85 84 82 79 77 75 74 74 73 72 71 71 71 71 71 71 70 70 70 69 69 67 66 64 63 62 62 62
55 55 57 58 59 60 60 61 62 63 64 65 67 68 70 71 73 74 75 75 74 74 74 74 74 75 75 76 77 79 81 82 84 84 84 83 81 79 76 74 73 73 72 72 72 72 73 73 73 73 73 73 73 71 69 66 64 61 60 59 59 59 58
53 54 56 57 58 59 59 61 62 64 65 66 68 69 71 72 72 72 72 71 71 71 71 72 73 74 75 76 78 80 82 83 83 83 81 80 77 75 73 72 72 71 71 71 71 72 73 74 75 75 75 74 73 70 67 65 62 59 57 55 55 55 55
54 56 57 58 59 60 62 63 64 65 66 67 69 70 70 70 69 69 68 68 69 69 70 71 72 74 75 77 79 81 82 82 82 81 79 76 74 73 72 71 71 70 70 71 72 73 74 75 76 76 75 73 70 68 65 63 60 58 56 54 52 52 51
56 57 58 58 59 61 63 64 65 66 67 68 68 68 67 66 66 66 66 67 68 69 70 71 73 74 76 78 80 81 81 81 80 78 76 73 72 71 71 70 70 71 72 73 73 74 75 76 76 75 73 70 67 65 62 60 58 56 55 54 51 49 48
57 57 58 59 61 62 63 64 66 66 66 66 65 64 64 64 64 65 67 68 69 70 71 72 73 75 77 78 79 80 80 79 77 75 73 71 70 70 70 71 71 72 73 73 74 75 75 75 74 72 69 67 64 62 60 58 56 54 53 52 50 47 46
58 58 60 61 62 63 64 65 65 65 64 63 62 62 63 64 65 66 67 68 69 70 71 73 75 76 77 78 78 78 78 76 73 71 70 70 70 70 70 71 72 72 73 74 75 75 74 73 71 68 65 63 60 58 57 56 55 53 52 51 47 45 43
59 60 60 61 62 63 64 64 63 62 61 61 61 62 63 64 65 66 67 68 69 70 72 74 75 76 76 77 77 76 74 72 70 69 69 69 70 70 71 71 72 72 73 74 74 73 71 69 67 64 61 58 56 55 54 53 52 52 52 51 49 46 44
59 60 61 62 62 62 62 61 60 60 61 61 62 63 64 65 66 67 68 69 70 71 72 73 74 75 76 76 75 73 70 68 67 67 68 69 69 70 70 70 71 72 73 73 72 70 68 65 62 59 56 54 53 52 51 49 49 49 50 50 50 48 46
60 60 60 61 61 60 59 59 60 60 61 62 63 64 65 65 66 67 68 69 70 71 72 73 73 74 74 73 71 69 67 66 66 67 68 68 68 68 69 70 71 72 72 71 69 67 65 61 58 55 53 51 50 49 48 47 46 46 47 48 48 47 45
59 59 59 59 59 59 59 60 61 61 62 63 64 64 65 66 67 67 68 69 70 70 71 72 73 73 72 70 67 65 64 65 66 67 67 67 67 67 69 70 71 71 71 69 67 64 61 58 55 53 51 49 47 46 45 45 44 45 46 46 45 44 42
57 57 57 58 58 59 60 61 61 62 62 63 64 64 65 66 67 67 68 68 69 70 71 72 72 70 68 66 64 63 63 65 65 65 65 65 66 68 69 71 71 70 69 67 64 61 58 55 53 51 49 47 45 45 44 44 43 43 44 43 42 40 39
56 57 57 58 59 60 60 61 61 62 63 63 64 65 65 66 66 66 66 67 68 70 70 70 69 67 64 62 62 62 63 64 64 63 64 65 67 68 70 70 70 69 67 64 61 57 55 53 51 48 46 45 44 44 44 43 42 42 42 42 40 39 38
57 57 58 59 59 60 60 61 61 62 63 63 64 64 64 65 65 65 66 67 68 69 69 68 66 63 61 61 61 61 62 62 62 62 63 65 67 69 70 70 68 67 64 60 57 55 53 51 48 45 44 44 44 44 43 42 41 40 40 41 41 39 37

ECMWFFLT1_250_spd_117.txt.gz
Wind_Speed
56 56 53 52 52 51 52 52 51 51 50 49 49 49 50 51 51 52 52 52 52 52 53 53 54 55 56 57 57 58 57 58 60 64 67 69 71 72 73 74 75 77 79 81 83 85 87 87 88 88 87 86 84 81 79 79 78 76 74 72 69 65 62
57 57 56 54 52 51 51 51 51 51 50 50 49 48 49 51 52 53 52 52 52 52 52 53 54 55 56 57 57 57 58 60 64 67 70 72 73 74 76 77 78 80 81 83 85 86 86 85 84 85 85 85 85 83 81 80 79 77 74 72 69 65 62
54 55 55 54 52 51 51 51 51 52 52 52 51 50 51 52 53 53 53 53 52 53 53 53 54 55 55 55 56 58 61 64 67 70 72 74 76 77 78 79 80 82 83 85 86 86 85 84 83 83 83 83 85 85 83 81 80 77 75 72 68 64 62
47 50 52 54 53 52 52 51 52 52 53 53 53 53 52 51 51 51 52 52 53 53 54 54 54 55 56 57 59 62 65 68 70 72 74 76 77 78 79 81 82 84 85 86 86 85 84 83 83 82 82 83 84 85 84 83 81 78 76 72 68 65 62
43 46 50 52 53 53 53 52 52 52 52 52 51 51 50 49 49 49 50 51 52 52 53 53 54 56 58 61 64 66 69 71 72 74 76 77 78 79 81 82 84 86 86 86 85 84 83 82 82 82 82 83 84 85 84 83 81 79 76 73 69 66 62
46 48 50 52 53 54 54 53 52 51 50 50 50 50 49 48 48 48 50 51 52 53 54 55 57 59 62 65 67 69 71 73 74 75 77 78 79 81 83 84 86 86 85 85 83 82 82 81 81 82 82 83 83 84 84 82 81 79 77 74 71 67 62
49 51 51 52 53 54 54 54 53 52 51 51 51 51 50 50 50 51 52 53 54 55 57 59 61 63 66 68 70 71 73 74 75 76 77 79 81 83 85 85 85 85 84 83 82 82 82 82 82 82 82 83 84 84 83 81 79 79 77 75 71 66 62
48 49 49 50 51 52 53 54 53 52 51 51 51 51 51 51 52 53 55 56 57 58 60 62 64 66 68 70 71 72 73 74 75 77 79 82 83 84 84 84 84 83 83 83 83 83 83 82 82 82 83 83 84 84 83 82 79 78 76 73 70 65 61
45 45 46 47 48 48 49 50 50 50 50 51 51 51 52 53 54 56 57 58 59 61 62 64 66 67 69 69 70 72 73 75 77 80 81 83 83 83 83 83 83 83 84 84 84 83 83 83 83 84 84 83 82 82 83 83 81 79 75 71 68 65 61
41 42 43 44 45 46 46 47 48 49 50 51 52 53 54 55 56 58 59 60 62 63 64 66 67 67 68 70 71 73 75 77 79 80 81 82 82 82 82 83 83 84 84 83 83 83 83 84 85 85 84 83 81 80 81 82 81 78 74 69 66 64 62
39 39 40 41 42 44 46 47 49 51 52 52 53 54 55 56 58 59 61 62 63 64 64 65 66 68 70 72 74 75 77 78 79 80 81 81 81 82 83 83 83 83 83 83 83 84 85 85 86 85 83 82 81 81 80 79 77 73 70 68 65 63 62
39 39 40 41 42 44 46 47 49 50 51 52 53 54 55 56 58 59 60 61 62 63 64 65 67 69 71 73 74 75 76 77 78 79 80 80 81 82 82 82 82 82 83 83 84 85 86 86 85 84 83 82 82 82 79 76 73 70 67 65 65 62 61
41 41 42 42 43 44 45 46 47 48 49 50 52 53 54 55 57 58 59 60 62 63 65 67 68 70 72 73 74 75 76 77 78 78 79 80 80 81 81 81 82 83 84 85 85 85 85 84 84 83 83 84 83 81 78 74 70 69 67 64 63 63 62
43 44 44 44 44 44 45 45 46 47 48 49 51 52 53 54 56 58 60 61 63 64 65 67 68 70 71 73 74 75 76 77 77 78 78 79 80 80 81 82 83 84 85 85 84 84 84 84 84 85 85 84 82 79 76 73 69 68 68 66 64 63 62
45 45 46 46 46 46 46 46 47 47 49 50 51 52 53 55 57 59 61 62 63 64 66 67 69 70 72 73 73 74 75 76 76 77 77 78 80 81 82 83 83 83 83 83 83 83 84 85 86 86 85 83 80 77 74 72 69 67 67 66 65 63 63
47 47 47 48 48 48 48 48 49 49 51 52 53 54 56 57 59 60 62 63 64 65 67 68 69 70 71 72 73 73 74 75 75 77 78 79 80 81 81 81 81 81 81 82 83 84 85 87 86 85 84 81 78 76 73 71 69 68 66 66 65 63 62
48 49 49 50 50 51 51 51 51 52 53 55 56 57 58 59 60 61 63 64 65 66 67 68 69 70 70 71 71 72 74 75 76 78 79 79 80 80 80 80 80 80 81 82 84 86 86 86 86 84 81 79 76 74 73 72 70 69 67 65 65 64 62
50 50 51 51 51 51 51 52 53 54 55 56 57 58 59 60 61 62 63 64 65 66 67 67 68 69 69 70 71 73 74 76 77 78 78 78 78 78 78 79 80 81 82 84 85 86 86 85 83 82 79 77 76 74 73 72 71 69 68 66 65 65 64
52 52 52 52 52 52 53 53 54 56 57 58 59 60 61 61 62 62 63 64 65 65 66 66 67 68 69 70 72 74 75 76 77 77 76 76 76 77 78 79 81 82 84 85 86 85 84 83 81 79 78 76 75 74 73 72 70 69 69 67 66 65 65
53 53 53 54 54 54 55 56 57 58 59 60 60 61 62 62 62 62 63 63 63 64 64 65 67 68 70 72 73 74 75 75 75 75 75 75 76 78 79 81 82 84 85 85 85 84 82 81 79 77 76 75 74 73 72 71 70 69 69 68 68 67 67
54 55 55 56 56 57 56 57 58 59 59 60 61 61 61 61 61 62 62 62 62 63 65 66 68 70 71 72 72 73 72 73 73 74 75 76 77 78 80 82 83 84 84 83 83 82 80 79 77 76 75 74 73 73 72 71 70 70 70 70 69 67 66
54 55 56 56 57 56 56 56 57 58 58 59 59 60 60 60 60 60 61 62 63 65 66 68 69 70 71 71 70 70 71 71 73 74 76 77 79 80 81 83 83 83 83 82 81 80 78 76 75 74 73 73 72 72 71 71 71 71 70 69 67 65 64
53 54 55 55 55 54 54 54 56 56 57 58 58 58 59 59 60 61 62 63 65 66 67 69 69 70 69 69 69 69 70 72 73 75 76 78 79 81 82 82 82 82 82 81 80 78 77 75 74 73 72 71 71 71 71 71 70 69 67 66 64 62 61
51 52 52 52 51 51 52 53 54 55 56 57 58 58 59 60 61 62 63 64 65 67 67 68 68 68 67 68 69 70 71 73 74 75 77 79 80 81 81 81 81 81 81 80 78 77 76 75 75 74 73 72 71 71 70 69 67 65 64 63 61 59 58
48 50 51 51 50 51 52 53 55 56 57 58 58 59 60 61 61 62 64 65 66 66 66 66 66 66 67 68 69 71 72 73 74 76 77 78 79 79 80 80 81 80 79 78 77 77 76 76 75 75 74 74 73 72 69 66 63 62 60 59 58 57 56
47 50 52 52 52 53 54 55 56 57 57 58 59 60 60 61 62 63 64 65 65 65 65 65 66 67 68 69 70 71 72 73 75 76 77 77 78 78 79 79 79 78 77 76 76 76 77 77 76 76 75 75 73 71 68 65 63 60 58 56 55 55 54
48 51 53 53 54 55 55 56 56 57 58 59 59 60 61 61 62 63 64 64 64 64 64 65 66 68 69 70 70 71 73 74 74 75 75 76 77 78 78 77 76 75 75 75 76 77 77 77 76 76 76 74 72 69 67 65 63 60 58 56 54 53 52
46 50 53 53 55 56 56 56 57 58 59 59 59 60 61 62 62 63 63 63 63 63 64 66 67 68 69 70 71 72 72 73 73 74 74 75 76 76 76 75 74 73 74 75 76 77 77 77 76 76 74 72 70 68 65 62 60 59 57 55 53 51 50
44 48 52 54 56 58 58 57 58 58 58 59 60 61 61 61 62 62 62 62 63 64 65 66 67 68 69 70 71 71 71 72 72 73 74 75 75 75 74 73 72 73 74 75 76 76 75 75 75 74 72 70 68 66 64 61 59 57 56 54 52 50 48
48 51 53 55 57 58 58 57 57 58 59 60 61 61 61 61 61 61 61 62 63 65 66 66 67 68 69 70 70 70 71 71 72 72 73 74 73 72 72 71 71 73 74 74 75 75 74 74 73 72 70 68 66 63 62 60 59 57 56 54 52 50 48
51 52 54 56 57 58 58 58 58 59 60 60 61 60 60 60 61 61 62 63 64 65 65 66 67 67 68 69 69 69 70 70 71 72 72 72 71 71 70 70 71 72 73 73 73 73 73 72 71 70 68 65 63 60 59 57 57 56 55 54 53 51 49
50 51 53 56 57 57 57 57 58 59 60 60 60 60 60 60 61 62 63 64 64 65 65 65 66 66 67 67 68 69 69 70 71 71 71 70 69 69 69 70 71 71 72 72 72 72 72 70 69 67 64 62 60 58 56 53 52 51 50 50 51 50 49
51 52 53 55 56 56 56 57 57 58 59 59 59 60 60 61 62 62 63 63 64 64 64 65 65 65 66 67 67 68 69 70 70 70 69 68 68 68 68 68 69 70 70 71 71 71 70 69 67 64 61 59 57 55 53 50 48 46 46 46 47 47 46
54 55 55 56 57 57 56 56 57 58 59 60 59 60 61 61 61 62 62 63 63 63 63 64 64 65 66 66 67 68 69 69 69 68 67 67 66 66 66 67 68 69 69 70 71 71 70 68 64 61 58 56 54 52 50 48 45 44 44 44 45 45 44
55 56 57 57 57 57 57 58 58 59 59 59 59 60 61 61 61 61 61 61 62 62 63 64 64 65 65 66 66 67 68 68 67 66 65 65 64 64 64 65 67 68 69 70 71 70 69 66 62 59 56 54 53 51 48 46 44 43 42 42 42 42 42
55 56 57 57 58 58 58 58 58 59 59 58 59 59 60 60 60 60 60 61 61 62 63 63 64 64 65 65 66 67 67 67 65 64 63 63 62 62 63 64 66 68 69 70 70 69 67 63 60 57 55 53 51 49 48 45 43 42 41 41 41 41 41
55 56 57 57 57 57 57 57 57 58 58 57 58 58 59 58 59 59 60 61 61 62 62 63 63 63 64 65 66 66 66 64 63 62 61 60 60 61 62 63 65 67 69 70 69 67 64 60 57 55 53 51 50 48 46 45 43 40 40 40 40 40 39

ECMWFFLT1_250_spd_123.txt.gz
Wind_Speed
35 34 32 31 26 23 29 35 36 35 34 35 36 35 35 36 38 40 43 45 45 46 46 47 47 48 49 49 50 49 49 50 51 51 52 53 55 56 57 58 58 59 60 62 64 67 70 73 75 76 75 74 73 75 76 77 78 78 79 79 79 78 78
37 35 34 35 34 34 37 39 39 38 37 38 38 38 37 36 36 37 39 41 42 44 45 46 47 48 48 48 48 48 48 49 50 51 53 54 55 56 57 58 59 60 62 64 67 70 73 76 77 77 77 76 76 77 78 79 79 80 80 79 79 79 79
40 40 38 39 41 42 42 41 39 38 37 37 38 39 40 39 38 38 39 40 42 43 44 46 46 46 46 47 47 48 49 50 51 52 53 54 55 56 57 59 60 62 64 68 70 73 74 75 75 76 77 78 79 79 80 81 81 80 80 80 80 80 79
38 41 42 42 43 44 43 42 40 38 37 38 39 40 40 41 41 41 42 42 42 43 44 45 46 46 47 48 49 49 50 51 51 53 54 55 56 57 58 60 62 65 68 70 71 72 73 74 75 77 78 79 80 81 81 81 81 81 81 82 81 80 79
37 39 41 43 45 45 45 44 43 41 39 40 41 41 41 43 44 44 44 43 43 44 45 46 47 48 49 49 49 50 50 51 52 54 55 56 57 59 61 63 65 67 68 69 70 71 73 75 76 78 79 80 81 81 81 81 81 82 82 82 81 80 79
40 40 41 43 44 45 47 48 46 43 40 41 44 43 43 45 47 46 45 44 44 45 46 47 48 48 49 49 49 50 51 52 53 55 56 57 59 61 63 65 66 67 68 69 71 72 74 76 77 78 79 80 80 80 81 82 82 82 81 81 80 80 80
40 42 44 45 47 47 46 46 45 43 42 43 45 45 47 48 48 46 45 44 44 44 44 45 46 47 47 48 48 50 51 53 54 56 58 59 61 62 63 64 66 67 69 70 72 73 75 76 77 78 79 80 81 81 82 82 83 82 82 82 81 82 82
38 40 43 45 48 49 49 47 46 45 44 45 47 48 50 50 48 46 44 42 42 42 43 44 44 45 46 47 49 50 52 54 56 57 58 59 61 62 64 65 67 68 70 71 72 74 75 75 76 77 78 80 82 83 83 83 83 83 83 84 85 84 84
39 39 40 42 45 46 48 50 51 51 50 50 51 51 51 49 46 44 42 42 43 43 43 44 44 45 46 47 49 51 53 54 56 57 59 60 62 63 65 66 67 69 70 71 72 73 73 74 75 77 78 80 81 82 83 83 84 85 85 85 87 87 86
42 43 43 43 44 44 44 45 48 50 51 51 51 50 48 47 45 44 44 44 44 44 44 44 45 46 47 49 50 52 53 55 57 58 60 61 63 64 66 67 68 69 70 70 71 72 73 74 76 77 78 79 79 80 82 83 84 86 87 87 87 87 87
43 44 45 44 44 44 43 43 44 46 48 48 48 48 47 47 46 46 45 45 45 45 45 46 47 48 49 51 52 53 55 56 58 60 61 62 64 65 66 67 67 68 68 69 71 72 74 75 76 77 77 78 78 80 82 84 85 85 87 87 87 86 86
44 45 44 44 44 44 44 45 45 47 48 49 49 48 48 48 47 47 46 45 46 46 47 47 48 50 51 52 53 55 56 58 59 61 62 63 64 65 65 65 66 67 68 70 72 73 74 75 75 76 76 78 79 81 83 85 86 86 86 86 86 85 84
46 46 45 45 45 46 46 47 47 48 49 49 49 49 49 48 47 47 46 46 46 47 48 49 50 51 52 54 55 56 58 59 60 61 62 62 62 63 63 64 66 68 70 71 72 73 74 75 75 76 77 79 80 82 84 85 86 87 86 85 85 83 82
48 48 48 47 47 47 47 48 48 48 49 49 49 49 49 48 48 47 47 47 48 49 49 50 52 53 54 55 56 57 58 58 59 59 60 60 61 62 64 66 67 69 70 72 73 73 74 75 76 77 78 80 81 83 84 85 86 87 87 86 84 82 80
49 50 50 50 50 49 49 49 49 49 49 50 50 50 50 50 50 49 49 49 50 50 51 52 53 53 54 55 55 56 56 56 57 57 58 60 62 63 65 67 68 70 71 71 72 73 74 75 77 78 79 81 82 83 83 84 84 85 85 84 82 79 77
48 49 50 51 51 51 51 51 51 51 51 51 52 52 52 52 51 50 50 51 51 51 52 52 52 53 53 53 53 53 54 55 56 58 59 62 63 65 66 67 69 70 70 71 72 73 75 76 77 79 80 82 83 83 84 84 83 83 82 81 78 74 72
45 47 49 50 51 51 51 51 51 52 52 52 52 52 52 51 51 51 51 51 51 51 51 51 51 51 51 51 51 52 54 55 57 59 61 63 64 65 66 68 69 69 70 71 72 74 75 76 78 80 81 82 83 84 84 84 83 81 79 76 73 71 71
43 45 47 48 49 50 50 51 51 51 51 51 51 51 51 51 51 51 52 51 50 50 49 49 49 49 49 50 51 53 55 57 59 60 62 63 64 65 66 67 68 69 70 71 73 74 75 77 78 80 81 82 83 84 84 83 82 79 75 72 71 71 71
41 42 44 45 46 48 49 49 50 50 50 50 51 51 51 51 51 51 50 49 48 48 47 47 47 48 49 51 52 54 56 58 60 61 62 63 64 65 66 67 69 70 71 72 73 74 76 77 79 80 81 82 83 84 84 83 80 76 73 71 71 71 71
39 40 41 43 44 45 47 48 48 49 49 50 50 50 50 50 49 49 48 48 47 46 46 46 48 49 50 52 54 56 58 59 60 61 62 63 64 65 67 68 69 70 72 72 73 74 76 77 79 80 81 82 83 83 83 81 77 73 71 72 72 72 71
39 40 40 41 43 44 45 46 47 47 48 48 48 48 48 48 48 48 47 47 46 45 46 47 49 50 51 53 55 57 58 59 60 61 62 63 65 66 68 69 70 71 71 72 73 75 76 77 79 80 81 82 82 82 81 78 74 72 71 72 73 72 70
38 39 40 41 41 42 43 43 44 45 45 46 46 46 46 46 47 47 47 47 46 46 47 48 50 51 53 54 56 57 59 59 60 61 63 65 66 67 68 69 70 70 71 72 73 75 76 77 79 80 81 81 82 81 78 74 72 72 72 71 71 70 68
39 39 39 39 39 40 41 41 42 43 43 44 44 45 45 46 47 48 48 48 48 47 47 49 51 52 53 54 56 58 59 60 61 62 64 66 67 67 68 68 69 70 71 72 73 74 76 77 78 79 79 79 79 78 74 72 71 72 72 70 68 66 64
38 38 38 37 37 38 38 38 39 41 42 43 44 46 47 48 50 51 50 49 48 47 48 51 52 52 53 55 57 58 59 60 62 64 65 66 67 67 67 68 69 70 71 72 73 75 76 77 78 78 78 78 77 73 70 70 71 71 70 68 65 62 59
37 37 36 35 35 35 36 37 38 40 41 44 47 50 51 52 53 54 53 51 49 50 52 52 52 52 54 56 57 59 60 61 63 65 66 66 67 67 67 68 69 70 71 72 74 75 76 77 78 78 78 77 74 70 68 69 70 70 68 65 61 58 56
36 35 35 34 33 34 35 36 38 40 43 46 49 52 51 51 52 55 55 56 55 55 54 53 53 53 55 56 58 59 60 62 64 65 66 66 67 67 68 69 69 70 71 73 74 76 76 77 77 78 78 75 72 70 69 70 70 68 65 62 59 55 52
35 34 34 33 32 33 35 38 40 43 46 48 49 50 47 46 50 54 57 60 60 57 55 54 53 54 55 56 58 59 61 63 64 65 65 66 67 68 68 68 69 70 72 73 75 75 76 77 78 78 76 73 71 71 71 71 70 68 65 61 58 54 50
34 34 32 31 32 34 37 39 42 44 46 47 47 47 44 43 49 56 59 62 61 59 57 55 54 55 56 57 59 60 62 64 64 65 66 67 67 67 67 68 70 71 72 74 74 75 75 77 78 77 74 71 70 71 71 71 69 67 63 60 57 53 49
34 34 32 32 34 35 35 37 40 43 44 45 46 48 48 49 53 59 62 62 61 59 57 56 55 56 57 59 60 62 63 64 64 65 66 66 66 66 68 69 70 71 73 74 74 74 75 77 76 74 72 70 70 70 70 69 67 65 62 58 56 53 50
36 36 36 35 35 34 34 36 41 45 48 48 49 51 54 56 58 60 62 62 60 58 56 56 56 57 58 60 61 63 63 64 64 65 65 65 65 67 68 70 70 72 73 73 73 74 75 75 74 72 71 70 70 70 70 69 67 65 62 58 56 54 52
38 38 38 37 38 38 39 41 45 49 52 51 50 52 55 57 59 60 60 59 58 56 55 55 56 58 60 61 62 63 63 64 64 64 64 65 66 67 68 70 70 72 72 71 72 73 73 72 71 70 69 68 69 70 69 68 67 66 63 60 58 57 55
40 40 40 41 42 43 43 44 46 50 52 53 52 53 54 56 57 58 57 56 55 54 54 55 56 59 60 61 62 63 63 63 63 63 64 65 66 67 69 70 70 71 70 70 71 71 69 68 68 68 67 67 67 68 67 66 66 64 62 60 58 57 56
42 42 42 43 44 45 45 45 47 50 52 53 54 54 55 55 55 54 54 54 54 53 54 55 57 59 60 60 61 62 62 62 62 63 65 66 67 68 69 69 70 70 69 69 69 67 65 65 66 66 66 66 66 66 66 64 63 61 59 57 56 55 54
43 43 43 43 44 46 46 48 50 51 51 52 52 53 53 53 53 53 53 53 53 53 55 56 57 58 59 60 61 61 61 62 63 64 66 66 67 68 68 69 69 67 67 66 65 63 62 63 64 64 65 65 65 65 64 63 62 60 56 54 54 54 53
44 43 43 44 45 47 48 49 51 52 51 49 50 50 51 51 52 53 53 53 54 55 56 56 57 58 59 60 60 60 61 63 64 65 66 67 68 68 68 68 67 65 64 63 60 59 59 61 62 63 63 63 64 64 63 62 61 59 56 53 52 52 52
43 44 44 46 47 48 49 49 51 52 51 50 50 50 50 51 52 53 53 54 55 56 56 56 57 58 59 60 60 61 63 64 65 66 67 67 68 68 68 66 64 62 62 59 57 56 58 59 61 62 62 62 63 63 62 61 61 59 56 53 51 50 50
43 44 46 47 48 49 50 50 50 51 51 51 50 50 51 52 53 54 55 56 56 56 57 57 58 59 60 61 62 63 64 65 66 67 67 67 67 67 67 64 62 61 59 56 54 55 56 57 59 60 61 61 62 62 62 61 61 60 57 53 51 50 49